Regional Weather Roundup
Issued by NWS Midland/Odessa, TX

Skip options and go directly to product.
Home | Oldest Version | Previous Version | Current Version | All | Text Only | Save Text | Print | Product List | Glossary Off

Skip product version selection by date and time.   

511
ASUS44 KMAF 232210
RWRMAF
MIDLAND AREA WEATHER ROUNDUP
NATIONAL WEATHER SERVICE MIDLAND TX
500 PM CDT THU OCT 23 2014

...IN SOUTHWEST TEXAS AND SOUTHEAST NEW MEXICO...

CITY           SKY/WX    TMP DP  RH WIND       PRES   REMARKS
ALPINE         MOSUNNY   77  47  35 SW6       30.21S
ANDREWS        FAIR      78  55  44 CALM      30.10S
ARTESIA        NOT AVBL
BIG SPRING     SUNNY     79  62  56 SE3       30.10F
CARLSBAD       SUNNY     76  59  55 SE8       30.08F
DRYDEN           N/A     77  61  57 E12       30.08S
FORT STOCKTON  SUNNY     82  57  42 NE8       30.09F
GUAD PASS      SUNNY     76  46  34 SW15      30.22S
HOBBS          MOSUNNY   77  50  38 S5        30.11F
MARFA          SUNNY     75  46  35 SW7       30.20F
MIDLAND AIRPK  SUNNY     82  54  38 CALM      30.08F
MIDLAND INTL   SUNNY     82  53  36 CALM      30.07F
ODESSA         SUNNY     80  52  37 SW5       30.09F
PECOS          SUNNY     79  60  51 NE3       30.06F
PRESIDIO       FAIR      82  57  43 CALM      30.07F
SEMINOLE       SUNNY     78  59  52 S7        30.11S
SNYDER         SUNNY     71  62  71 S5        30.09F
WINK           SUNNY     80  32  17 S5        30.06F
$$
...OTHER STATIONS IN TEXAS...

CITY           SKY/WX    TMP DP  RH WIND       PRES   REMARKS
ABILENE        MOSUNNY   82  58  43 SW9       30.06F
AMARILLO       SUNNY     76  57  51 S10       30.07F
AUSTIN         MOSUNNY   82  59  45 NE8       30.05F
BROWNSVILLE    MOSUNNY   83  67  58 NE9       30.01F
CORPUS CHRISTI MOSUNNY   81  63  54 E9        30.04S
DALLAS FTW     MOSUNNY   78  56  46 S7        30.06F
DEL RIO        MOSUNNY   79  65  62 SE10      30.06F
EL PASO        MOSUNNY   80  46  30 W5        30.12F
HOUSTON INT    MOSUNNY   76  55  48 N5        30.06F
LUBBOCK        MOSUNNY   76  59  55 S10       30.08S
SAN ANGELO     MOSUNNY   77  61  57 S12       30.08F
SAN ANTONIO    PTSUNNY   82  58  43 VRB6      30.06F
WACO           MOSUNNY   80  56  43 E7        30.06F
WICHITA FALLS  NOT AVBL
$$
...OTHER LOCATIONS IN NEW MEXICO...

CITY           SKY/WX    TMP DP  RH WIND       PRES   REMARKS
ALAMAGORDO     NOT AVBL
ALBUQUERQUE    MOSUNNY   74  35  24 W7        30.20F
CANNON AFB     SUNNY     80  41  24 W17G26    30.10S
CLOVIS         SUNNY     81  39  22 W16G22    30.11F
HOLLOMAN AFB   SUNNY     78  45  30 VRB5      30.13F
ROSWELL        SUNNY     79  54  41 S9        30.09S
RUIDOSO        SUNNY     66  36  32 NW10G22   30.29S
SANTA FE       SUNNY     72  32  23 W12       30.22F
TRUTH OR CONSE SUNNY     77  38  24 SE6       30.16F
TUCUMCARI      SUNNY     82  32  16 CALM      30.06F
$$

USA.gov is the U.S. government's official web portal to all federal, state and local government web resources and services.